This is the latest recevied weather packets stored in our database for station/object PD2BVG. If no packets are shown the sender has not sent any weather packets the latest 1 day(s).
| Time | Temp. | Humidity | Pressure | Rain* | Wind** | Luminosity | Snow |
|---|---|---|---|---|---|---|---|
| 1778016992 | 11.11° C | 81% | 1011.1 hPa | 0 mm | 4.02 m/s, 340° | 0 W/m² | - |
| 1778016932 | 11.11° C | 81% | 1011.2 hPa | 0 mm | 4.02 m/s, 334° | 0 W/m² | - |
| 1778016872 | 11.11° C | 81% | 1011.1 hPa | 0 mm | 3.58 m/s, 336° | 0 W/m² | - |
| 1778016812 | 11.11° C | 81% | 1011.1 hPa | 0 mm | 4.02 m/s, 334° | 0 W/m² | - |
| 1778016752 | 11.11° C | 81% | 1011.2 hPa | 0 mm | 4.02 m/s, 353° | 0 W/m² | - |
| 1778016692 | 11.11° C | 81% | 1011.1 hPa | 0 mm | 3.58 m/s, 14° | 0 W/m² | - |
| 1778016632 | 11.11° C | 81% | 1011.2 hPa | 0 mm | 3.58 m/s, 340° | 0 W/m² | - |
| 1778016572 | 11.11° C | 81% | 1011.1 hPa | 0 mm | 3.58 m/s, 334° | 0 W/m² | - |
| 1778016512 | 11.11° C | 81% | 1011.2 hPa | 0 mm | 3.58 m/s, 0° | 0 W/m² | - |
| 1778016451 | 11.11° C | 81% | 1011.2 hPa | 0 mm | 3.58 m/s, 357° | 0 W/m² | - |
| 1778016394 | 11.11° C | 81% | 1011.1 hPa | 0 mm | 3.13 m/s, 0° | 0 W/m² | - |
| 1778016334 | 11.11° C | 81% | 1011.2 hPa | 0 mm | 3.13 m/s, 314° | 0 W/m² | - |
| 1778016272 | 11.11° C | 81% | 1011.2 hPa | 0 mm | 3.13 m/s, 331° | 0 W/m² | - |
| 1778016212 | 11.11° C | 80% | 1011.2 hPa | 0 mm | 3.13 m/s, 330° | 0 W/m² | - |
| 1778016152 | 11.11° C | 81% | 1011.2 hPa | 0 mm | 2.68 m/s, 324° | 0 W/m² | - |
| 1778016092 | 11.11° C | 81% | 1011.1 hPa | 0 mm | 3.13 m/s, 302° | 0 W/m² | - |
| 1778016032 | 11.11° C | 80% | 1011.2 hPa | 0 mm | 3.13 m/s, 336° | 0 W/m² | - |
| 1778015972 | 11.11° C | 81% | 1011.2 hPa | 0 mm | 4.02 m/s, 323° | 0 W/m² | - |
| 1778015912 | 11.11° C | 81% | 1011.1 hPa | 0 mm | 3.58 m/s, 7° | 0 W/m² | - |
| 1778015851 | 11.11° C | 81% | 1011.2 hPa | 0 mm | 3.58 m/s, 345° | 0 W/m² | - |
| 1778015793 | 11.11° C | 81% | 1011 hPa | 0 mm | 3.58 m/s, 343° | 0 W/m² | - |
| 1778015731 | 11.11° C | 81% | 1011.2 hPa | 0 mm | 3.58 m/s, 327° | 0 W/m² | - |
| 1778015672 | 11.11° C | 81% | 1011.1 hPa | 0 mm | 4.02 m/s, 0° | 0 W/m² | - |
| 1778015612 | 11.11° C | 81% | 1011.2 hPa | 0 mm | 4.02 m/s, 0° | 0 W/m² | - |
| 1778015552 | 11.11° C | 81% | 1011.1 hPa | 0 mm | 4.02 m/s, 331° | 0 W/m² | - |
* Rain latest hour (hover to see other rain measurements)
** Current wind speed in m/s (hover to see current wind gust speed)